Retour au catalogue

COSMOS 1922

ActifMilitaireHEO
NORAD 18881·PAYLOAD·🇷🇺 Russia

Lancé Feb 26, 1988 depuis Plesetsk Cosmodrome

Loading…

Prochains Passages (prochaines 24 heures)

TLE

FraisSource: Space-Track

Époque: Sep 13, 2026, 12:49 UTC

1 18881U 88013A   26256.53437150  .00000433  00000-0  00000-0 0  9995
2 18881  68.7817  67.1226 5926780  41.8484 350.7823  2.00834716282309

Suivez COSMOS 1922 en temps réel avec AllMySat

Download on the App Store